Alifaki, Turkey

11:19 AM +03 on November 21, 2017 (GMT +0300)
CAPUTCU | | Change Station

Elev 23 ft 36.85 °N, 35.19 °E | Updated 12 minutes ago

Clear
Clear
63.4 °F
Feels Like 63.4 °F
N
10.0
Wind Variable Wind from SSW
Gusts 21.0 mph

Today
High -- | Low -- °F
--% Chance of Precip.
Yesterday
High -- | Low -- °F
Precip. -- in
Pressure 29.62 in
Visibility 6.2 miles
Clouds Scattered Clouds 3500 ft
Dew Point 47 °F
Humidity 55%
Rainfall 0.00 in
Snow Depth Not available.
7:24 AM 5:27 PM
Waxing Crescent, 7% visible
METAR LTAF 210750Z 23012KT 9999 SCT035 18/07 Q1003 NOSIG RMK RWY23 25014KT
Pressure 29.62 in
Visibility 6.2 miles
Clouds Scattered Clouds 3500 ft
Dew Point 47 °F
Humidity 55%
Rainfall 0.00 in
Snow Depth Not available.
7:24 AM 5:27 PM
Waxing Crescent, 7% visible
METAR LTAF 210750Z 23012KT 9999 SCT035 18/07 Q1003 NOSIG RMK RWY23 25014KT

Get Severe Weather Alerts

Thanks for signing up!

Be on the lookout for a verification email in your inbox.

You'll start receiving the daily forecast at 6 AM.

×

10-Day Weather Forecast

×

Almanac

Astronomy

Nov. 21, 2017 Rise Set
Actual Time
Civil Twilight
Nautical Twilight
Astronomical Twilight
Moon
Length of Visible Light
Length of Day
Tomorrow will be .
, % of the Moon is Illuminated

Today's Extremes

Country Highs Country Lows

Community

WunderPhotos

Category 6

Welcome to Category 6. This is the collective home for Weather Underground's featured writeups by Dr. Jeff Masters (right), Bob Henson (left), Chris Burt, and other regular contributors.

Nearby

Air Quality

  Air Quality AQ Index Pollutant
Not available.

Snow Depth

Station Depth Elevation

Earthquake Activity

City Distance Mag. Time & Date
Minimum magnitude displayed is 2.5.

Coastal Water Temperatures

Place Temperature

Stations

Nearby Weather Stations

Station Location Temp. Windchill Dew Point Humidity Wind Precip. Elev Updated Type